{"data":{"norad_id":48359,"epoch":"2026-09-19T11:17:38.515488Z","epoch_age_seconds":103254,"freshness":"FRESH","line1":"1 48359U 21038G   26262.47058467  .00038442  00000+0  11849-2 0  9997","line2":"2 48359  53.1591 176.5175 0002943  92.4930 267.6409 15.33258710296761","mean_motion":15.3325871,"eccentricity":0.0002943,"inclination_deg":53.1591,"raan_deg":176.5175,"arg_perigee_deg":92.493,"mean_anomaly_deg":267.6409,"bstar":0.0011849,"rev_number":29676,"period_min":93.917614203542,"perigee_km":464.08324035763,"apogee_km":468.11175678349,"semimajor_km":6844.2344985706,"source":"CELESTRAK","updated_at":"2026-09-20T09:00:38.939844Z"}}